Weather reports worldwide

Advertisment
Marham, United Kingdom (3482): temperature & dewpoint: 21.02.2020 14:00:00 - 27.02.2020 14:00:00 (GMT)Marham, United Kingdom (3482): temperature -20cm & temperature -100cm: 21.02.2020 14:00:00 - 27.02.2020 14:00:00 (GMT)Marham, United Kingdom (3482): wind speed & gusts: 21.02.2020 14:00:00 - 27.02.2020 14:00:00 (GMT)Marham, United Kingdom (3482): wind direction: 21.02.2020 14:00:00 - 27.02.2020 14:00:00 (GMT)Marham, United Kingdom (3482): reduced air pressure: 21.02.2020 14:00:00 - 27.02.2020 14:00:00 (GMT)Marham, United Kingdom (3482): visibility: 21.02.2020 14:00:00 - 27.02.2020 14:00:00 (GMT)Marham, United Kingdom (3482): precipitation: 21.02.2020 14:00:00 - 27.02.2020 14:00:00 (GMT)
Date & Time tt [°C] td [°C] tt -20cm [°C] tt -100cm [°C] ff [km/h] ff [kn] fx [km/h] fx [kn] dd ppp [hPa] vv [km] rr [mm]
27.02.2020 14:00:00 5,8 0,8 - - 31 17 - - NW 1000,6 10 0,0
27.02.2020 13:00:00 5,2 3,0 - - 28 15 - - NW 999,5 10 0,0
27.02.2020 12:00:00 4,1 2,7 - - 26 14 - - NW 998,8 15 0,2
27.02.2020 11:00:00 1,8 1,6 - - 15 8 - - W 998,1 5 0,4
27.02.2020 10:00:00 0,9 0,6 - - 9 5 - - W 997,8 2,5 0,0
27.02.2020 09:00:00 1,2 0,7 6,0 7,2 8 4 - - W 997,6 4,0 0,6
27.02.2020 08:00:00 1,5 1,0 - - 8 4 - - S 997,3 10 0,2
27.02.2020 07:00:00 1,9 1,1 - - 9 5 - - S 997,4 15 0,2
27.02.2020 06:00:00 2,2 0,8 - - 13 7 - - S 998,0 20 0,0
27.02.2020 05:00:00 2,5 0,2 - - 11 6 - - SSE 998,8 20 0,0
27.02.2020 04:00:00 2,3 0,3 - - 13 7 - - S 999,8 10 0,0
27.02.2020 03:00:00 1,8 0,2 - - 9 5 - - S 1001,0 20 0,0
27.02.2020 02:00:00 1,7 0,1 - - 13 7 - - S 1002,3 22 0,0
27.02.2020 01:00:00 1,2 -0,4 - - 11 6 - - S 1003,2 22 0,0
27.02.2020 00:00:00 0,7 -0,5 - - 13 7 - - S 1004,2 10 0,0
26.02.2020 23:00:00 0,5 -0,9 - - 9 5 - - SSW 1005,0 10 0,0
26.02.2020 22:00:00 0,6 -1,4 - - 11 6 - - SSW 1005,6 10 0,0
26.02.2020 21:00:00 -0,1 -1,3 - - 9 5 - - SW 1006,1 20 0,0
26.02.2020 20:00:00 1,0 -1,2 - - 9 5 - - S 1006,4 10 0,0
26.02.2020 19:00:00 2,1 -0,4 - - 15 8 - - W 1006,3 10 0,0
26.02.2020 18:00:00 3,5 -0,9 - - 18 10 54 29 W 1005,8 10 0,0
26.02.2020 17:00:00 5,9 -0,6 - - 24 13 - - W 1005,1 10 0,0
26.02.2020 16:00:00 6,3 1,9 - - 22 12 - - W 1004,4 10 0,0
26.02.2020 15:00:00 6,0 1,6 - - 28 15 - - W 1003,5 10 0,0
26.02.2020 14:00:00 7,5 2,2 - - 29 16 - - W 1003,3 10 0,0
26.02.2020 13:00:00 6,0 1,2 - - 28 15 - - WNW 1002,9 25 0,0
26.02.2020 12:00:00 5,3 1,5 - - 26 14 - - W 1002,6 10 0,0
26.02.2020 11:00:00 5,3 2,0 - - 28 15 - - W 1001,6 10 0,0
26.02.2020 10:00:00 4,2 1,8 - - 28 15 - - W 1001,1 10 0,0
26.02.2020 09:00:00 2,9 1,0 6,5 7,2 26 14 - - W 1000,0 10 0,0
26.02.2020 08:00:00 2,1 0,4 - - 28 15 - - W 999,0 10 0,0
26.02.2020 07:00:00 1,4 -0,2 - - 24 13 - - W 997,9 10 0,0
26.02.2020 06:00:00 1,8 0,2 - - 22 12 - - W 997,1 20 0,0
26.02.2020 05:00:00 2,0 0,6 - - 24 13 - - WNW 996,6 10 0,0
26.02.2020 04:00:00 2,1 0,3 - - 26 14 - - W 995,9 20 0,0
26.02.2020 03:00:00 2,4 0,9 - - 24 13 - - W 995,4 10 0,0
26.02.2020 02:00:00 1,4 1,0 - - 18 10 - - W 995,2 10 0,8
26.02.2020 01:00:00 2,4 1,0 - - 31 17 - - W 994,7 24 0,0
26.02.2020 00:00:00 2,4 0,9 - - 26 14 - - W 994,2 20 0,0
25.02.2020 23:00:00 2,7 1,5 - - 18 10 - - W 993,9 12 0,0
25.02.2020 22:00:00 2,7 1,1 - - 24 13 - - W 993,5 10 0,0
25.02.2020 21:00:00 3,1 1,7 - - 15 8 - - W 993,4 10 0,0
25.02.2020 20:00:00 3,2 2,3 - - 15 8 - - SW 993,5 10 0,0
25.02.2020 19:00:00 3,3 1,9 - - 15 8 - - SW 993,5 10 0,0
25.02.2020 18:00:00 3,4 1,9 - - 15 8 - - SW 993,9 10 0,0
25.02.2020 17:00:00 4,6 2,9 - - 15 8 - - SSW 994,4 10 0,0
25.02.2020 16:00:00 5,3 3,2 - - 11 6 - - SSW 995,2 25 0,6
25.02.2020 15:00:00 3,7 2,3 - - 34 18 52 28 WSW 996,2 9 0,4
25.02.2020 14:00:00 8,0 1,0 - - 29 16 - - WSW 996,3 25 0,0
25.02.2020 13:00:00 7,2 0,4 - - 28 15 - - W 997,5 10 0,0
25.02.2020 12:00:00 7,2 1,6 - - 28 15 48 26 WSW 998,1 10 0,0
25.02.2020 11:00:00 6,7 0,6 - - 29 16 48 26 W 998,3 10 0,0
25.02.2020 10:00:00 6,0 2,4 - - 29 16 50 27 WSW 998,6 10 0,0
25.02.2020 09:00:00 4,4 2,1 6,9 7,2 22 12 - - SW 999,4 25 0,0
25.02.2020 08:00:00 2,7 1,0 - - 21 11 - - SW 999,6 10 0,0
25.02.2020 07:00:00 2,8 0,9 - - 22 12 - - SW 999,9 25 0,0
25.02.2020 06:00:00 3,1 1,2 - - 24 13 - - WSW 1000,3 10 0,0
25.02.2020 05:00:00 3,0 1,5 - - 22 12 - - SW 1000,8 10 0,0
25.02.2020 04:00:00 3,7 1,4 - - 26 14 - - WSW 1001,0 10 0,0
25.02.2020 03:00:00 4,1 1,5 - - 21 11 - - WSW 1001,4 30 0,0
25.02.2020 02:00:00 4,3 2,0 - - 22 12 - - WSW 1001,8 30 0,0
25.02.2020 01:00:00 5,1 1,9 - - 29 16 - - WSW 1001,9 10 0,0
25.02.2020 00:00:00 4,8 1,8 - - 24 13 - - WSW 1002,0 10 0,0
24.02.2020 23:00:00 5,6 1,7 - - 28 15 46 25 WSW 1002,0 10 0,0
24.02.2020 22:00:00 6,6 1,2 - - 37 20 50 27 W 1001,8 10 0,0
24.02.2020 21:00:00 7,3 2,5 - - 31 17 55 30 W 1001,9 10 0,0
24.02.2020 20:00:00 9,7 4,3 - - 37 20 59 32 W 1001,1 10 0,0
24.02.2020 19:00:00 10,8 6,9 - - 34 18 46 25 WSW 1000,2 10 0,0
24.02.2020 18:00:00 11,0 8,2 - - 31 17 57 31 WSW 999,6 20 0,0
24.02.2020 17:00:00 11,4 8,8 - - 37 20 57 31 SW 999,3 10 0,0
24.02.2020 16:00:00 11,8 9,4 - - 42 23 63 34 SW 999,6 10 0,0
24.02.2020 15:00:00 11,7 9,5 - - 44 24 65 35 SW 999,8 10 0,0
24.02.2020 14:00:00 11,6 9,7 - - 44 24 61 33 SW 1000,7 15 0,0
24.02.2020 13:00:00 10,9 9,7 - - 44 24 61 33 SW 1001,2 15 0,4
24.02.2020 12:00:00 10,4 9,4 - - 39 21 55 30 SW 1002,8 7 0,8
24.02.2020 11:00:00 9,8 9,0 - - 35 19 50 27 SW 1003,9 7 0,8
24.02.2020 10:00:00 8,9 8,4 - - 34 18 48 26 SSW 1005,0 7 0,6
24.02.2020 09:00:00 7,1 6,8 6,9 7,2 29 16 - - S 1006,6 3,0 1,6
24.02.2020 08:00:00 5,4 5,0 - - 29 16 48 26 SSE 1009,2 3,0 0,6
24.02.2020 07:00:00 4,4 3,9 - - 31 17 - - SE 1011,5 3,0 0,2
24.02.2020 06:00:00 3,9 2,5 - - 28 15 - - SSE 1014,2 10 0,2
24.02.2020 05:00:00 4,7 0,0 - - 16 9 - - SE 1016,4 25 0,0
24.02.2020 04:00:00 4,7 -0,3 - - 11 6 - - SE 1018,6 25 0,0
24.02.2020 03:00:00 3,9 0,6 - - 8 4 - - SSE 1020,5 27 0,0
24.02.2020 02:00:00 3,7 0,7 - - 5 3 - - S 1021,9 24 0,0
24.02.2020 01:00:00 3,6 1,0 - - 8 4 - - SSE 1022,6 23 0,0
24.02.2020 00:00:00 1,1 -0,2 - - 11 6 - - SW 1023,2 25 0,0
23.02.2020 23:00:00 2,6 0,1 - - 5 3 - - SSW 1022,7 25 0,0
23.02.2020 22:00:00 3,6 0,7 - - 11 6 - - WSW 1023,0 10 0,0
23.02.2020 21:00:00 3,5 0,0 - - 9 5 - - WSW 1022,6 10 0,0
23.02.2020 20:00:00 4,5 -0,5 - - 11 6 - - WSW 1022,3 10 0,0
23.02.2020 19:00:00 5,4 -0,8 - - 18 10 - - W 1021,6 30 0,0
23.02.2020 18:00:00 6,2 -1,1 - - 28 15 - - WNW 1020,3 35 0,0
23.02.2020 17:00:00 7,0 -1,3 - - 34 18 54 29 WNW 1018,6 10 0,0
23.02.2020 16:00:00 8,7 -1,9 - - 39 21 61 33 WNW 1017,1 45 0,0
23.02.2020 15:00:00 8,7 1,7 - - 37 20 61 33 WNW 1015,5 45 0,0
23.02.2020 14:00:00 9,5 3,0 - - 41 22 63 34 WNW 1014,2 50 0,0
23.02.2020 13:00:00 10,1 5,1 - - 41 22 63 34 WNW 1012,3 40 0,0
23.02.2020 12:00:00 11,9 7,6 - - 41 22 72 39 W 1010,2 40 0,0
23.02.2020 11:00:00 11,7 9,5 - - 39 21 67 36 W 1008,2 10 0,2
23.02.2020 10:00:00 12,6 10,3 - - 52 28 74 40 WSW 1006,1 10 0,0
23.02.2020 09:00:00 12,3 9,9 6,9 7,2 42 23 67 36 WSW 1004,6 35 0,0
23.02.2020 08:00:00 11,5 9,9 - - 44 24 63 34 SW 1004,6 10 0,2
23.02.2020 07:00:00 9,3 9,1 - - 26 14 - - SSW 1004,9 11 1,0
23.02.2020 06:00:00 7,3 7,1 - - 22 12 - - SSE 1006,2 10 2,0
23.02.2020 05:00:00 7,0 6,7 - - 15 8 - - S 1008,8 2,7 2,2
23.02.2020 04:00:00 7,0 6,6 - - 21 11 - - S 1011,2 4,5 1,8
23.02.2020 03:00:00 6,9 6,2 - - 21 11 - - SSW 1013,7 6 1,0
23.02.2020 02:00:00 7,0 5,9 - - 24 13 - - SW 1015,7 14 0,6
23.02.2020 01:00:00 7,5 5,5 - - 34 18 50 27 SW 1016,6 13 0,0
23.02.2020 00:00:00 7,9 5,4 - - 29 16 46 25 SW 1016,7 19 0,0
22.02.2020 23:00:00 8,1 4,8 - - 28 15 - - SW 1017,9 23 0,0
22.02.2020 22:00:00 7,7 3,6 - - 28 15 - - SW 1017,7 27 0,0
22.02.2020 21:00:00 7,4 3,9 - - 28 15 - - SW 1017,3 27 0,0
22.02.2020 20:00:00 7,5 4,3 - - 24 13 - - WSW 1017,7 10 0,0
22.02.2020 19:00:00 8,9 2,2 - - 37 20 54 29 W 1017,6 35 0,0
22.02.2020 18:00:00 8,8 3,9 - - 28 15 46 25 WSW 1016,9 10 0,0
22.02.2020 17:00:00 9,2 4,4 - - 29 16 - - W 1016,7 10 0,2
22.02.2020 16:00:00 10,4 4,6 - - 28 15 54 29 W 1015,5 26 0,0
22.02.2020 15:00:00 10,7 4,7 - - 42 23 68 37 W 1014,9 25 0,0
22.02.2020 14:00:00 11,7 3,3 - - 48 26 65 35 WSW 1014,1 10 0,0
22.02.2020 13:00:00 12,2 3,9 - - 46 25 70 38 W 1013,9 29 0,0
22.02.2020 12:00:00 11,3 4,4 - - 46 25 68 37 W 1013,9 30 0,0
22.02.2020 11:00:00 10,5 6,6 - - 48 26 81 44 W 1013,2 35 0,4
22.02.2020 10:00:00 12,4 8,4 - - 48 26 76 41 SW 1011,1 40 0,0
22.02.2020 09:00:00 11,4 8,3 6,5 7,2 46 25 70 38 SW 1010,7 30 0,0
22.02.2020 08:00:00 10,5 7,6 - - 44 24 68 37 SW 1010,2 10 0,0
22.02.2020 07:00:00 10,4 7,0 - - 44 24 70 38 SW 1009,7 24 0,0
22.02.2020 06:00:00 9,9 6,3 - - 44 24 67 36 SW 1010,2 19 0,0
22.02.2020 05:00:00 9,5 5,7 - - 41 22 65 35 SW 1010,3 18 0,0
22.02.2020 04:00:00 9,2 5,4 - - 44 24 61 33 SSW 1010,6 17 0,0
22.02.2020 03:00:00 9,1 5,2 - - 41 22 65 35 SW 1011,4 18 0,0
22.02.2020 02:00:00 9,2 5,2 - - 46 25 61 33 SW 1012,2 18 0,0
22.02.2020 01:00:00 9,0 5,0 - - 42 23 63 34 SW 1013,2 19 0,0
22.02.2020 00:00:00 9,1 5,0 - - 42 23 61 33 SW 1013,8 18 0,0
21.02.2020 23:00:00 8,9 5,0 - - 41 22 63 34 SW 1014,3 18 0,0
21.02.2020 22:00:00 9,0 5,1 - - 35 19 55 30 SW 1015,3 17 0,0
21.02.2020 21:00:00 9,2 4,8 - - 39 21 67 36 SW 1014,8 10 0,0
21.02.2020 20:00:00 9,5 4,8 - - 41 22 61 33 SW 1015,2 10 0,0
21.02.2020 19:00:00 9,4 5,0 - - 41 22 57 31 SW 1015,9 20 0,0
21.02.2020 18:00:00 9,1 4,9 - - 37 20 55 30 SSW 1016,3 19 0,0
21.02.2020 17:00:00 9,2 5,0 - - 31 17 54 29 SW 1017,3 10 0,0
21.02.2020 16:00:00 8,9 4,9 - - 37 20 57 31 SW 1017,8 10 0,0
21.02.2020 15:00:00 8,9 4,8 - - 39 21 59 32 SW 1017,9 10 0,0
21.02.2020 14:00:00 8,5 4,6 - - 41 22 61 33 SW 1018,0 10 0,0

tt = temperature
td = dewpoint
tt -20cm = temperature -20cm
tt -100cm = temperature -100cm
ff = wind speed
fx = gusts
dd = wind direction
ppp = reduced air pressure
vv = visibility
rr = precipitation

Next stations